Climatologie pour Saint-Brevin les Pins
Jour • Résumé pour mars 19, 2017 Système :  Métrique    Anglais   Mixte
« - 1 jour
+ 1 jour »
Jour Semaine Mois Année Personnalisé
  Maximum : Minimum : Moyenne :
Température sous abri : 13.7 °C 10.3 °C 11.3 °C
Point de rosée : 11.6 °C 8.9 °C 10 °C
Humidité : 96 % 86 % 92 %
Vitesse du vent : 20.9 km/h 1.6 km/h 7.7 km/h
Rafale : 27.4 km/h - -
Direction :- - West
Pression : 1021.9 hPa 1017.2 hPa -
Précipitations : 0.0 mm    
Historical Graphs
 
 
Tableau de données pour mars 19, 2017
Heure Tempé Pt rosée Pression Vent Vitesse Rafale Humidité Taux pluie (/hr) Soleil
00:00 10.6 °C 9.9 °C 1021.9 hPa West 9.7 km/h 16.1 km/h 96 % 0.0 mm 0 W/m2
00:05 10.6 °C 9.9 °C 1021.9 hPa WNW 4.8 km/h 17.7 km/h 96 % 0.0 mm 0 W/m2
00:10 10.6 °C 9.9 °C 1021.9 hPa West 8.0 km/h 17.7 km/h 96 % 0.0 mm 0 W/m2
00:15 10.6 °C 9.9 °C 1021.6 hPa WNW 4.8 km/h 12.9 km/h 96 % 0.0 mm 0 W/m2
00:20 10.6 °C 9.9 °C 1021.6 hPa NW 8.0 km/h 12.9 km/h 96 % 0.0 mm 0 W/m2
00:25 10.6 °C 9.9 °C 1021.6 hPa West 6.4 km/h 14.5 km/h 96 % 0.0 mm 0 W/m2
00:30 10.5 °C 9.9 °C 1021.6 hPa WNW 6.4 km/h 14.5 km/h 96 % 0.0 mm 0 W/m2
00:40 10.5 °C 9.7 °C 1021.6 hPa West 4.8 km/h 12.9 km/h 95 % 0.0 mm 0 W/m2
00:45 10.6 °C 9.8 °C 1021.6 hPa West 4.8 km/h 12.9 km/h 95 % 0.0 mm 0 W/m2
00:55 10.6 °C 9.8 °C 1021.6 hPa West 6.4 km/h 14.5 km/h 95 % 0.0 mm 0 W/m2
01:00 10.6 °C 9.8 °C 1021.6 hPa West 4.8 km/h 14.5 km/h 95 % 0.0 mm 0 W/m2
01:10 10.6 °C 9.8 °C 1021.6 hPa West 3.2 km/h 16.1 km/h 95 % 0.0 mm 0 W/m2
01:15 10.6 °C 9.8 °C 1021.6 hPa WNW 8.0 km/h 16.1 km/h 95 % 0.0 mm 0 W/m2
01:20 10.6 °C 9.8 °C 1021.6 hPa WNW 8.0 km/h 16.1 km/h 95 % 0.0 mm 0 W/m2
01:25 10.6 °C 9.8 °C 1021.6 hPa WNW 11.3 km/h 20.9 km/h 95 % 0.0 mm 0 W/m2
01:30 10.6 °C 9.8 °C 1021.6 hPa WNW 14.5 km/h 20.9 km/h 95 % 0.0 mm 0 W/m2
01:40 10.6 °C 9.8 °C 1021.6 hPa WNW 8.0 km/h 19.3 km/h 95 % 0.0 mm 0 W/m2
01:45 10.6 °C 9.8 °C 1021.6 hPa WNW 9.7 km/h 19.3 km/h 95 % 0.0 mm 0 W/m2
01:50 10.6 °C 9.8 °C 1021.6 hPa WNW 6.4 km/h 19.3 km/h 95 % 0.0 mm 0 W/m2
01:55 10.6 °C 9.8 °C 1021.6 hPa WNW 6.4 km/h 17.7 km/h 95 % 0.0 mm 0 W/m2
02:00 10.6 °C 9.8 °C 1021.6 hPa NW 4.8 km/h 17.7 km/h 95 % 0.0 mm 0 W/m2
02:05 10.6 °C 9.8 °C 1021.6 hPa WNW 12.9 km/h 16.1 km/h 95 % 0.0 mm 0 W/m2
02:10 10.6 °C 9.8 °C 1021.2 hPa West 6.4 km/h 14.5 km/h 95 % 0.0 mm 0 W/m2
02:15 10.6 °C 9.9 °C 1021.6 hPa West 4.8 km/h 19.3 km/h 96 % 0.0 mm 0 W/m2
02:20 10.6 °C 9.9 °C 1021.2 hPa West 3.2 km/h 19.3 km/h 96 % 0.0 mm 0 W/m2
02:25 10.5 °C 9.9 °C 1021.2 hPa West 4.8 km/h 14.5 km/h 96 % 0.0 mm 0 W/m2
02:30 10.5 °C 9.9 °C 1021.2 hPa West 9.7 km/h 17.7 km/h 96 % 0.0 mm 0 W/m2
02:35 10.5 °C 9.9 °C 1021.2 hPa West 3.2 km/h 17.7 km/h 96 % 0.0 mm 0 W/m2
02:40 10.5 °C 9.9 °C 1021.2 hPa West 9.7 km/h 17.7 km/h 96 % 0.0 mm 0 W/m2
02:45 10.5 °C 9.9 °C 1021.2 hPa WNW 3.2 km/h 17.7 km/h 96 % 0.0 mm 0 W/m2
02:50 10.4 °C 9.8 °C 1021.2 hPa West 4.8 km/h 16.1 km/h 96 % 0.0 mm 0 W/m2
02:55 10.4 °C 9.8 °C 1021.2 hPa West 8.0 km/h 16.1 km/h 96 % 0.0 mm 0 W/m2
03:00 10.4 °C 9.8 °C 1021.2 hPa WNW 3.2 km/h 16.1 km/h 96 % 0.0 mm 0 W/m2
03:05 10.4 °C 9.8 °C 1021.2 hPa West 6.4 km/h 14.5 km/h 96 % 0.0 mm 0 W/m2
03:10 10.4 °C 9.8 °C 1020.9 hPa WSW 4.8 km/h 12.9 km/h 96 % 0.0 mm 0 W/m2
03:15 10.4 °C 9.8 °C 1020.9 hPa WNW 4.8 km/h 12.9 km/h 96 % 0.0 mm 0 W/m2
03:25 10.4 °C 9.8 °C 1020.5 hPa West 4.8 km/h 12.9 km/h 96 % 0.0 mm 0 W/m2
03:30 10.4 °C 9.8 °C 1020.5 hPa WSW 3.2 km/h 14.5 km/h 96 % 0.0 mm 0 W/m2
03:35 10.4 °C 9.8 °C 1020.5 hPa West 1.6 km/h 14.5 km/h 96 % 0.0 mm 0 W/m2
03:40 10.4 °C 9.8 °C 1020.5 hPa West 6.4 km/h 9.7 km/h 96 % 0.0 mm 0 W/m2
03:45 10.4 °C 9.8 °C 1020.5 hPa West 6.4 km/h 16.1 km/h 96 % 0.0 mm 0 W/m2
03:50 10.4 °C 9.8 °C 1020.5 hPa WNW 8.0 km/h 16.1 km/h 96 % 0.0 mm 0 W/m2
03:55 10.5 °C 9.9 °C 1020.5 hPa West 4.8 km/h 17.7 km/h 96 % 0.0 mm 0 W/m2
04:00 10.6 °C 9.8 °C 1020.5 hPa West 12.9 km/h 17.7 km/h 95 % 0.0 mm 0 W/m2
04:05 10.6 °C 9.8 °C 1020.2 hPa West 6.4 km/h 17.7 km/h 95 % 0.0 mm 0 W/m2
04:10 10.6 °C 9.8 °C 1020.2 hPa WNW 4.8 km/h 17.7 km/h 95 % 0.0 mm 0 W/m2
04:20 10.5 °C 9.7 °C 1020.2 hPa NNW 6.4 km/h 14.5 km/h 95 % 0.0 mm 0 W/m2
04:25 10.5 °C 9.6 °C 1020.2 hPa WNW 6.4 km/h 14.5 km/h 94 % 0.0 mm 0 W/m2
04:30 10.5 °C 9.6 °C 1020.2 hPa West 4.8 km/h 16.1 km/h 94 % 0.0 mm 0 W/m2
04:35 10.6 °C 9.5 °C 1020.2 hPa NW 6.4 km/h 16.1 km/h 93 % 0.0 mm 0 W/m2
04:40 10.6 °C 9.5 °C 1020.2 hPa West 1.6 km/h 16.1 km/h 93 % 0.0 mm 0 W/m2
04:45 10.7 °C 9.6 °C 1020.2 hPa SW 12.9 km/h 14.5 km/h 93 % 0.0 mm 0 W/m2
04:50 10.6 °C 9.5 °C 1020.2 hPa West 8.0 km/h 14.5 km/h 93 % 0.0 mm 0 W/m2
04:55 10.6 °C 9.5 °C 1019.9 hPa WNW 8.0 km/h 14.5 km/h 93 % 0.0 mm 0 W/m2
05:00 10.6 °C 9.6 °C 1019.9 hPa West 6.4 km/h 14.5 km/h 94 % 0.0 mm 0 W/m2
05:05 10.6 °C 9.6 °C 1019.9 hPa West 11.3 km/h 17.7 km/h 94 % 0.0 mm 0 W/m2
05:10 10.6 °C 9.7 °C 1020.2 hPa West 8.0 km/h 17.7 km/h 94 % 0.0 mm 0 W/m2
05:15 10.6 °C 9.6 °C 1020.2 hPa WSW 4.8 km/h 16.1 km/h 94 % 0.0 mm 0 W/m2
05:20 10.5 °C 9.6 °C 1020.2 hPa West 11.3 km/h 17.7 km/h 94 % 0.0 mm 0 W/m2
05:25 10.5 °C 9.6 °C 1020.2 hPa West 3.2 km/h 17.7 km/h 94 % 0.0 mm 0 W/m2
05:30 10.5 °C 9.6 °C 1020.2 hPa WSW 11.3 km/h 17.7 km/h 94 % 0.0 mm 0 W/m2
05:35 10.6 °C 9.6 °C 1020.2 hPa West 4.8 km/h 14.5 km/h 94 % 0.0 mm 0 W/m2
05:40 10.6 °C 9.6 °C 1020.2 hPa West 12.9 km/h 16.1 km/h 94 % 0.0 mm 0 W/m2
05:45 10.6 °C 9.6 °C 1020.2 hPa WNW 9.7 km/h 19.3 km/h 94 % 0.0 mm 0 W/m2
05:50 10.6 °C 9.6 °C 1020.2 hPa West 9.7 km/h 19.3 km/h 94 % 0.0 mm 0 W/m2
05:55 10.6 °C 9.6 °C 1019.9 hPa West 4.8 km/h 20.9 km/h 94 % 0.0 mm 0 W/m2
06:00 10.6 °C 9.6 °C 1019.9 hPa West 3.2 km/h 20.9 km/h 94 % 0.0 mm 0 W/m2
06:05 10.6 °C 9.6 °C 1019.9 hPa West 9.7 km/h 19.3 km/h 94 % 0.0 mm 0 W/m2
06:10 10.5 °C 9.6 °C 1019.9 hPa West 8.0 km/h 22.5 km/h 94 % 0.0 mm 0 W/m2
06:15 10.5 °C 9.6 °C 1019.9 hPa West 11.3 km/h 22.5 km/h 94 % 0.0 mm 0 W/m2
06:20 10.5 °C 9.6 °C 1019.9 hPa WSW 4.8 km/h 19.3 km/h 94 % 0.0 mm 0 W/m2
06:25 10.5 °C 9.6 °C 1019.9 hPa West 4.8 km/h 19.3 km/h 94 % 0.0 mm 0 W/m2
06:30 10.5 °C 9.6 °C 1019.9 hPa WNW 4.8 km/h 19.3 km/h 94 % 0.0 mm 0 W/m2
06:35 10.5 °C 9.6 °C 1019.9 hPa West 16.1 km/h 19.3 km/h 94 % 0.0 mm 0 W/m2
06:40 10.5 °C 9.7 °C 1019.9 hPa West 9.7 km/h 16.1 km/h 95 % 0.0 mm 0 W/m2
06:45 10.5 °C 9.7 °C 1019.9 hPa WSW 6.4 km/h 16.1 km/h 95 % 0.0 mm 0 W/m2
06:50 10.5 °C 9.7 °C 1019.9 hPa WSW 4.8 km/h 19.3 km/h 95 % 0.0 mm 0 W/m2
06:55 10.4 °C 9.7 °C 1019.9 hPa West 1.6 km/h 19.3 km/h 95 % 0.0 mm 0 W/m2
07:00 10.4 °C 9.7 °C 1019.9 hPa WNW 8.0 km/h 14.5 km/h 95 % 0.0 mm 0 W/m2
07:05 10.4 °C 9.8 °C 1019.9 hPa WSW 3.2 km/h 12.9 km/h 96 % 0.0 mm 0 W/m2
07:10 10.3 °C 9.7 °C 1019.9 hPa WNW 6.4 km/h 11.3 km/h 96 % 0.0 mm 0 W/m2
07:15 10.3 °C 9.7 °C 1019.9 hPa WNW 9.7 km/h 12.9 km/h 96 % 0.0 mm 0 W/m2
07:20 10.3 °C 9.7 °C 1019.9 hPa WNW 3.2 km/h 16.1 km/h 96 % 0.0 mm 0 W/m2
07:25 10.4 °C 9.6 °C 1019.9 hPa WSW 4.8 km/h 16.1 km/h 95 % 0.0 mm 7 W/m2
07:35 10.4 °C 9.7 °C 1019.9 hPa West 9.7 km/h 17.7 km/h 95 % 0.0 mm 11 W/m2
07:40 10.4 °C 9.7 °C 1019.9 hPa West 9.7 km/h 17.7 km/h 95 % 0.0 mm 12 W/m2
07:45 10.5 °C 9.7 °C 1019.9 hPa West 4.8 km/h 17.7 km/h 95 % 0.0 mm 16 W/m2
07:50 10.6 °C 9.8 °C 1019.9 hPa West 9.7 km/h 17.7 km/h 95 % 0.0 mm 19 W/m2
07:55 10.6 °C 9.8 °C 1019.9 hPa SW 6.4 km/h 16.1 km/h 95 % 0.0 mm 33 W/m2
08:00 10.6 °C 9.8 °C 1019.9 hPa WSW 4.8 km/h 16.1 km/h 95 % 0.0 mm 35 W/m2
08:05 10.6 °C 9.8 °C 1019.9 hPa WNW 8.0 km/h 16.1 km/h 95 % 0.0 mm 35 W/m2
08:10 10.7 °C 9.9 °C 1019.9 hPa West 4.8 km/h 19.3 km/h 95 % 0.0 mm 37 W/m2
08:20 10.7 °C 10.0 °C 1020.2 hPa West 8.0 km/h 14.5 km/h 95 % 0.0 mm 30 W/m2
08:25 10.7 °C 9.9 °C 1020.2 hPa West 3.2 km/h 14.5 km/h 95 % 0.0 mm 26 W/m2
08:30 10.7 °C 9.8 °C 1020.2 hPa WSW 4.8 km/h 14.5 km/h 94 % 0.0 mm 26 W/m2
08:35 10.7 °C 9.8 °C 1019.9 hPa West 12.9 km/h 16.1 km/h 94 % 0.0 mm 26 W/m2
08:40 10.7 °C 9.8 °C 1019.9 hPa WSW 9.7 km/h 16.1 km/h 94 % 0.0 mm 42 W/m2
08:45 10.8 °C 9.9 °C 1019.9 hPa WSW 6.4 km/h 16.1 km/h 94 % 0.0 mm 60 W/m2
08:50 10.9 °C 10.0 °C 1019.9 hPa West 9.7 km/h 17.7 km/h 94 % 0.0 mm 63 W/m2
08:55 10.9 °C 10.0 °C 1019.9 hPa West 4.8 km/h 17.7 km/h 94 % 0.0 mm 40 W/m2
09:00 10.9 °C 10.0 °C 1019.9 hPa WNW 11.3 km/h 16.1 km/h 94 % 0.0 mm 60 W/m2
09:05 10.9 °C 9.9 °C 1019.9 hPa WNW 8.0 km/h 16.1 km/h 93 % 0.0 mm 79 W/m2
09:10 11.0 °C 9.9 °C 1020.2 hPa West 8.0 km/h 17.7 km/h 93 % 0.0 mm 70 W/m2
09:15 11.1 °C 10.0 °C 1020.2 hPa West 8.0 km/h 17.7 km/h 93 % 0.0 mm 118 W/m2
09:20 11.2 °C 10.1 °C 1019.9 hPa West 8.0 km/h 17.7 km/h 93 % 0.0 mm 102 W/m2
09:25 11.2 °C 9.9 °C 1020.2 hPa West 6.4 km/h 19.3 km/h 92 % 0.0 mm 90 W/m2
09:30 11.2 °C 10.0 °C 1020.2 hPa WSW 4.8 km/h 19.3 km/h 92 % 0.0 mm 91 W/m2
09:35 11.2 °C 10.0 °C 1020.2 hPa West 8.0 km/h 19.3 km/h 92 % 0.0 mm 88 W/m2
09:40 11.3 °C 10.0 °C 1020.2 hPa West 9.7 km/h 19.3 km/h 92 % 0.0 mm 84 W/m2
09:45 11.3 °C 10.0 °C 1020.2 hPa WSW 8.0 km/h 17.7 km/h 92 % 0.0 mm 93 W/m2
09:50 11.3 °C 10.1 °C 1020.2 hPa West 3.2 km/h 16.1 km/h 92 % 0.0 mm 97 W/m2
09:55 11.4 °C 10.1 °C 1020.2 hPa WNW 12.9 km/h 16.1 km/h 92 % 0.0 mm 109 W/m2
10:00 11.4 °C 10.1 °C 1020.2 hPa West 14.5 km/h 17.7 km/h 92 % 0.0 mm 111 W/m2
10:05 11.4 °C 10.2 °C 1020.2 hPa West 4.8 km/h 19.3 km/h 92 % 0.0 mm 113 W/m2
10:10 11.5 °C 10.4 °C 1020.2 hPa WSW 4.8 km/h 19.3 km/h 93 % 0.0 mm 174 W/m2
10:15 11.6 °C 10.3 °C 1020.2 hPa West 4.8 km/h 19.3 km/h 92 % 0.0 mm 160 W/m2
10:20 11.7 °C 10.6 °C 1020.2 hPa WNW 12.9 km/h 19.3 km/h 93 % 0.0 mm 181 W/m2
10:25 11.8 °C 10.5 °C 1020.2 hPa WNW 4.8 km/h 19.3 km/h 92 % 0.0 mm 202 W/m2
10:30 11.8 °C 10.6 °C 1020.2 hPa WNW 4.8 km/h 19.3 km/h 92 % 0.0 mm 114 W/m2
10:35 11.7 °C 10.4 °C 1020.2 hPa West 8.0 km/h 19.3 km/h 92 % 0.0 mm 84 W/m2
10:40 11.5 °C 10.2 °C 1020.2 hPa WSW 12.9 km/h 19.3 km/h 92 % 0.0 mm 90 W/m2
10:45 11.5 °C 10.4 °C 1020.2 hPa West 16.1 km/h 17.7 km/h 93 % 0.0 mm 160 W/m2
10:50 11.6 °C 10.5 °C 1020.2 hPa West 11.3 km/h 17.7 km/h 93 % 0.0 mm 162 W/m2
10:55 11.6 °C 10.3 °C 1020.2 hPa West 9.7 km/h 16.1 km/h 92 % 0.0 mm 144 W/m2
11:00 11.6 °C 10.4 °C 1020.2 hPa West 6.4 km/h 16.1 km/h 92 % 0.0 mm 163 W/m2
11:10 11.6 °C 10.3 °C 1020.2 hPa WSW 9.7 km/h 20.9 km/h 92 % 0.0 mm 167 W/m2
11:15 11.6 °C 10.4 °C 1020.2 hPa West 3.2 km/h 20.9 km/h 92 % 0.0 mm 193 W/m2
11:20 11.9 °C 10.6 °C 1019.9 hPa West 4.8 km/h 16.1 km/h 92 % 0.0 mm 367 W/m2
11:25 12.2 °C 10.8 °C 1019.9 hPa West 16.1 km/h 17.7 km/h 91 % 0.0 mm 292 W/m2
11:30 12.2 °C 10.6 °C 1019.9 hPa West 11.3 km/h 17.7 km/h 90 % 0.0 mm 297 W/m2
11:40 12.5 °C 10.9 °C 1019.9 hPa West 8.0 km/h 17.7 km/h 90 % 0.0 mm 265 W/m2
11:45 12.4 °C 10.6 °C 1019.9 hPa SW 12.9 km/h 17.7 km/h 89 % 0.0 mm 387 W/m2
11:50 12.6 °C 11.0 °C 1019.9 hPa West 6.4 km/h 20.9 km/h 90 % 0.0 mm 369 W/m2
11:55 12.7 °C 10.6 °C 1019.9 hPa WNW 8.0 km/h 20.9 km/h 87 % 0.0 mm 283 W/m2
12:00 12.6 °C 10.4 °C 1019.9 hPa West 9.7 km/h 20.9 km/h 87 % 0.0 mm 309 W/m2
12:05 12.6 °C 10.4 °C 1019.9 hPa NW 6.4 km/h 20.9 km/h 87 % 0.0 mm 352 W/m2
12:10 12.7 °C 10.6 °C 1019.9 hPa South 12.9 km/h 19.3 km/h 87 % 0.0 mm 406 W/m2
12:15 12.7 °C 10.4 °C 1019.9 hPa WSW 4.8 km/h 19.3 km/h 86 % 0.0 mm 408 W/m2
12:20 12.6 °C 10.3 °C 1019.9 hPa West 8.0 km/h 20.9 km/h 86 % 0.0 mm 388 W/m2
12:25 12.8 °C 10.5 °C 1019.5 hPa West 4.8 km/h 20.9 km/h 86 % 0.0 mm 432 W/m2
12:30 12.8 °C 10.5 °C 1019.5 hPa WSW 19.3 km/h 19.3 km/h 86 % 0.0 mm 376 W/m2
12:35 12.8 °C 10.5 °C 1019.5 hPa West 8.0 km/h 19.3 km/h 86 % 0.0 mm 417 W/m2
12:40 12.9 °C 10.6 °C 1019.9 hPa WNW 6.4 km/h 19.3 km/h 86 % 0.0 mm 373 W/m2
12:45 12.8 °C 10.5 °C 1019.5 hPa WSW 9.7 km/h 17.7 km/h 86 % 0.0 mm 350 W/m2
12:50 12.8 °C 10.7 °C 1019.9 hPa WSW 9.7 km/h 17.7 km/h 87 % 0.0 mm 292 W/m2
12:55 12.7 °C 10.4 °C 1019.9 hPa WSW 11.3 km/h 24.1 km/h 86 % 0.0 mm 276 W/m2
13:00 12.4 °C 10.3 °C 1019.9 hPa West 11.3 km/h 24.1 km/h 87 % 0.0 mm 221 W/m2
13:05 12.4 °C 10.5 °C 1019.9 hPa WSW 6.4 km/h 22.5 km/h 88 % 0.0 mm 276 W/m2
13:10 12.4 °C 10.5 °C 1019.9 hPa WSW 11.3 km/h 19.3 km/h 88 % 0.0 mm 250 W/m2
13:15 12.2 °C 10.3 °C 1019.9 hPa West 9.7 km/h 19.3 km/h 88 % 0.0 mm 257 W/m2
13:20 12.3 °C 10.4 °C 1019.9 hPa WNW 9.7 km/h 19.3 km/h 88 % 0.0 mm 248 W/m2
13:30 12.3 °C 10.5 °C 1019.5 hPa West 1.6 km/h 24.1 km/h 89 % 0.0 mm 278 W/m2
13:35 12.4 °C 10.6 °C 1019.5 hPa West 9.7 km/h 19.3 km/h 89 % 0.0 mm 237 W/m2
13:40 12.4 °C 10.6 °C 1019.5 hPa WNW 9.7 km/h 17.7 km/h 89 % 0.0 mm 202 W/m2
13:45 12.4 °C 10.8 °C 1019.5 hPa WSW 6.4 km/h 17.7 km/h 90 % 0.0 mm 251 W/m2
13:50 12.3 °C 10.6 °C 1019.2 hPa West 9.7 km/h 19.3 km/h 89 % 0.0 mm 334 W/m2
13:55 12.3 °C 10.6 °C 1019.2 hPa West 16.1 km/h 20.9 km/h 89 % 0.0 mm 301 W/m2
14:00 12.3 °C 10.3 °C 1019.2 hPa West 6.4 km/h 22.5 km/h 88 % 0.0 mm 255 W/m2
14:05 12.4 °C 10.8 °C 1019.2 hPa SW 9.7 km/h 22.5 km/h 90 % 0.0 mm 385 W/m2
14:10 12.7 °C 11.0 °C 1018.8 hPa West 6.4 km/h 20.9 km/h 89 % 0.0 mm 413 W/m2
14:20 13.1 °C 10.8 °C 1018.8 hPa WNW 17.7 km/h 20.9 km/h 86 % 0.0 mm 397 W/m2
14:30 13.2 °C 11.0 °C 1018.8 hPa WNW 9.7 km/h 24.1 km/h 87 % 0.0 mm 615 W/m2
14:35 13.4 °C 11.3 °C 1018.8 hPa WNW 14.5 km/h 24.1 km/h 87 % 0.0 mm 466 W/m2
14:40 13.1 °C 10.8 °C 1018.8 hPa WSW 19.3 km/h 22.5 km/h 86 % 0.0 mm 397 W/m2
14:50 12.8 °C 10.9 °C 1018.5 hPa WSW 11.3 km/h 25.7 km/h 88 % 0.0 mm 355 W/m2
14:55 12.8 °C 10.9 °C 1018.5 hPa WSW 4.8 km/h 27.4 km/h 88 % 0.0 mm 390 W/m2
15:00 12.9 °C 10.9 °C 1018.5 hPa SW 8.0 km/h 27.4 km/h 88 % 0.0 mm 343 W/m2
15:05 12.6 °C 10.7 °C 1018.5 hPa West 16.1 km/h 20.9 km/h 88 % 0.0 mm 272 W/m2
15:10 13.1 °C 11.3 °C 1018.5 hPa WNW 4.8 km/h 20.9 km/h 89 % 0.0 mm 626 W/m2
15:15 13.7 °C 11.6 °C 1018.2 hPa WNW 6.4 km/h 20.9 km/h 87 % 0.0 mm 605 W/m2
15:20 13.3 °C 11.0 °C 1018.2 hPa WSW 4.8 km/h 24.1 km/h 86 % 0.0 mm 538 W/m2
15:25 13.2 °C 11.1 °C 1018.5 hPa West 14.5 km/h 24.1 km/h 87 % 0.0 mm 417 W/m2
15:30 12.9 °C 10.8 °C 1018.2 hPa West 9.7 km/h 20.9 km/h 87 % 0.0 mm 369 W/m2
15:40 13.0 °C 10.9 °C 1018.5 hPa West 11.3 km/h 22.5 km/h 87 % 0.0 mm 322 W/m2
15:45 12.9 °C 10.9 °C 1018.5 hPa West 11.3 km/h 22.5 km/h 88 % 0.0 mm 294 W/m2
15:50 12.8 °C 10.7 °C 1018.5 hPa West 4.8 km/h 22.5 km/h 87 % 0.0 mm 262 W/m2
15:55 12.7 °C 10.8 °C 1018.5 hPa West 8.0 km/h 24.1 km/h 88 % 0.0 mm 250 W/m2
16:00 12.6 °C 10.7 °C 1018.5 hPa WNW 6.4 km/h 24.1 km/h 88 % 0.0 mm 267 W/m2
16:05 12.7 °C 10.9 °C 1018.5 hPa WNW 17.7 km/h 22.5 km/h 89 % 0.0 mm 262 W/m2
16:10 12.7 °C 10.9 °C 1018.5 hPa WNW 8.0 km/h 25.7 km/h 89 % 0.0 mm 260 W/m2
16:15 12.7 °C 10.8 °C 1018.5 hPa WNW 6.4 km/h 25.7 km/h 88 % 0.0 mm 260 W/m2
16:25 12.6 °C 10.6 °C 1018.5 hPa West 20.9 km/h 24.1 km/h 88 % 0.0 mm 232 W/m2
16:30 12.5 °C 10.7 °C 1018.2 hPa WSW 8.0 km/h 20.9 km/h 89 % 0.0 mm 227 W/m2
16:35 12.4 °C 10.5 °C 1018.2 hPa WNW 4.8 km/h 20.9 km/h 88 % 0.0 mm 193 W/m2
16:40 12.5 °C 10.7 °C 1018.2 hPa West 14.5 km/h 20.9 km/h 89 % 0.0 mm 156 W/m2
16:45 12.2 °C 10.5 °C 1018.2 hPa WSW 11.3 km/h 20.9 km/h 89 % 0.0 mm 153 W/m2
16:50 12.2 °C 10.5 °C 1018.2 hPa West 6.4 km/h 20.9 km/h 89 % 0.0 mm 156 W/m2
16:55 12.2 °C 10.5 °C 1018.2 hPa WSW 11.3 km/h 19.3 km/h 89 % 0.0 mm 132 W/m2
17:00 12.2 °C 10.5 °C 1018.2 hPa West 3.2 km/h 19.3 km/h 89 % 0.0 mm 125 W/m2
17:05 12.2 °C 10.4 °C 1018.2 hPa WNW 20.9 km/h 24.1 km/h 89 % 0.0 mm 113 W/m2
17:10 12.1 °C 10.3 °C 1018.2 hPa West 9.7 km/h 24.1 km/h 89 % 0.0 mm 107 W/m2
17:15 12.1 °C 10.5 °C 1018.2 hPa West 12.9 km/h 20.9 km/h 90 % 0.0 mm 109 W/m2
17:20 12.1 °C 10.5 °C 1018.2 hPa WNW 9.7 km/h 19.3 km/h 90 % 0.0 mm 104 W/m2
17:30 12.0 °C 10.4 °C 1018.2 hPa West 6.4 km/h 20.9 km/h 90 % 0.0 mm 90 W/m2
17:35 11.9 °C 10.4 °C 1018.2 hPa West 14.5 km/h 20.9 km/h 90 % 0.0 mm 81 W/m2
17:40 11.9 °C 10.3 °C 1018.2 hPa NW 8.0 km/h 20.9 km/h 90 % 0.0 mm 69 W/m2
17:45 11.8 °C 10.2 °C 1018.2 hPa WNW 9.7 km/h 20.9 km/h 90 % 0.0 mm 65 W/m2
17:50 11.8 °C 10.2 °C 1018.2 hPa WNW 11.3 km/h 22.5 km/h 90 % 0.0 mm 58 W/m2
17:55 11.8 °C 10.4 °C 1018.2 hPa West 8.0 km/h 22.5 km/h 91 % 0.0 mm 54 W/m2
18:00 11.8 °C 10.4 °C 1018.2 hPa NW 14.5 km/h 17.7 km/h 91 % 0.0 mm 46 W/m2
18:05 11.7 °C 10.3 °C 1018.2 hPa WNW 4.8 km/h 17.7 km/h 91 % 0.0 mm 40 W/m2
18:10 11.7 °C 10.2 °C 1018.2 hPa West 6.4 km/h 17.7 km/h 91 % 0.0 mm 37 W/m2
18:15 11.6 °C 10.2 °C 1018.2 hPa WNW 1.6 km/h 17.7 km/h 91 % 0.0 mm 33 W/m2
18:20 11.6 °C 10.2 °C 1018.2 hPa West 4.8 km/h 12.9 km/h 91 % 0.0 mm 30 W/m2
18:25 11.6 °C 10.1 °C 1018.2 hPa WNW 8.0 km/h 12.9 km/h 91 % 0.0 mm 23 W/m2
18:30 11.5 °C 10.1 °C 1017.8 hPa West 6.4 km/h 17.7 km/h 91 % 0.0 mm 19 W/m2
18:35 11.5 °C 10.1 °C 1018.2 hPa WNW 8.0 km/h 17.7 km/h 91 % 0.0 mm 14 W/m2
18:45 11.4 °C 10.0 °C 1018.2 hPa West 4.8 km/h 14.5 km/h 91 % 0.0 mm 12 W/m2
18:50 11.4 °C 10.0 °C 1017.8 hPa West 6.4 km/h 14.5 km/h 91 % 0.0 mm 9 W/m2
19:00 11.3 °C 10.1 °C 1018.2 hPa West 8.0 km/h 17.7 km/h 92 % 0.0 mm 5 W/m2
19:15 11.2 °C 10.0 °C 1017.8 hPa West 3.2 km/h 16.1 km/h 92 % 0.0 mm 0 W/m2
19:20 11.2 °C 10.0 °C 1017.8 hPa WSW 4.8 km/h 16.1 km/h 92 % 0.0 mm 0 W/m2
19:25 11.2 °C 10.0 °C 1017.8 hPa West 9.7 km/h 16.1 km/h 92 % 0.0 mm 0 W/m2
19:30 11.2 °C 10.0 °C 1017.8 hPa West 11.3 km/h 12.9 km/h 92 % 0.0 mm 0 W/m2
19:35 11.2 °C 9.9 °C 1018.2 hPa WNW 4.8 km/h 16.1 km/h 92 % 0.0 mm 0 W/m2
19:40 11.2 °C 10.0 °C 1018.2 hPa West 4.8 km/h 17.7 km/h 92 % 0.0 mm 0 W/m2
19:45 11.2 °C 10.1 °C 1017.8 hPa WSW 6.4 km/h 17.7 km/h 93 % 0.0 mm 0 W/m2
19:50 11.2 °C 10.1 °C 1018.2 hPa West 8.0 km/h 16.1 km/h 93 % 0.0 mm 0 W/m2
19:55 11.2 °C 10.1 °C 1018.2 hPa WNW 6.4 km/h 14.5 km/h 93 % 0.0 mm 0 W/m2
20:00 11.2 °C 10.1 °C 1018.2 hPa WNW 4.8 km/h 16.1 km/h 93 % 0.0 mm 0 W/m2
20:05 11.2 °C 10.1 °C 1018.2 hPa WNW 8.0 km/h 16.1 km/h 93 % 0.0 mm 0 W/m2
20:10 11.2 °C 10.1 °C 1018.2 hPa WNW 9.7 km/h 17.7 km/h 93 % 0.0 mm 0 W/m2
20:15 11.2 °C 10.1 °C 1018.2 hPa WNW 8.0 km/h 17.7 km/h 93 % 0.0 mm 0 W/m2
20:20 11.2 °C 10.1 °C 1018.2 hPa West 12.9 km/h 14.5 km/h 93 % 0.0 mm 0 W/m2
20:25 11.1 °C 10.0 °C 1018.2 hPa West 6.4 km/h 19.3 km/h 93 % 0.0 mm 0 W/m2
20:30 10.9 °C 10.0 °C 1018.2 hPa WNW 4.8 km/h 19.3 km/h 94 % 0.0 mm 0 W/m2
20:40 10.7 °C 9.8 °C 1018.2 hPa West 9.7 km/h 22.5 km/h 94 % 0.0 mm 0 W/m2
20:45 10.7 °C 9.7 °C 1018.2 hPa WNW 3.2 km/h 16.1 km/h 94 % 0.0 mm 0 W/m2
20:50 10.6 °C 9.7 °C 1018.2 hPa West 9.7 km/h 19.3 km/h 94 % 0.0 mm 0 W/m2
20:55 10.6 °C 9.5 °C 1018.2 hPa WNW 4.8 km/h 19.3 km/h 93 % 0.0 mm 0 W/m2
21:00 10.6 °C 9.5 °C 1018.2 hPa West 4.8 km/h 14.5 km/h 93 % 0.0 mm 0 W/m2
21:05 10.7 °C 9.4 °C 1018.2 hPa West 9.7 km/h 14.5 km/h 92 % 0.0 mm 0 W/m2
21:10 10.7 °C 9.3 °C 1017.8 hPa West 4.8 km/h 12.9 km/h 91 % 0.0 mm 0 W/m2
21:15 10.7 °C 9.3 °C 1017.8 hPa West 8.0 km/h 14.5 km/h 91 % 0.0 mm 0 W/m2
21:20 10.7 °C 9.3 °C 1017.8 hPa West 6.4 km/h 14.5 km/h 91 % 0.0 mm 0 W/m2
21:25 10.7 °C 9.3 °C 1017.8 hPa West 6.4 km/h 12.9 km/h 91 % 0.0 mm 0 W/m2
21:30 10.8 °C 9.4 °C 1017.8 hPa West 6.4 km/h 12.9 km/h 91 % 0.0 mm 0 W/m2
21:35 10.8 °C 9.2 °C 1017.8 hPa WSW 6.4 km/h 11.3 km/h 90 % 0.0 mm 0 W/m2
21:40 10.8 °C 9.2 °C 1017.8 hPa West 4.8 km/h 20.9 km/h 90 % 0.0 mm 0 W/m2
21:45 10.8 °C 9.2 °C 1017.8 hPa WNW 6.4 km/h 20.9 km/h 90 % 0.0 mm 0 W/m2
21:50 10.7 °C 9.1 °C 1017.8 hPa WNW 8.0 km/h 17.7 km/h 90 % 0.0 mm 0 W/m2
21:55 10.5 °C 8.9 °C 1017.8 hPa WNW 9.7 km/h 14.5 km/h 90 % 0.0 mm 0 W/m2
22:00 10.4 °C 8.9 °C 1017.8 hPa West 3.2 km/h 11.3 km/h 90 % 0.0 mm 0 W/m2
22:05 10.4 °C 8.9 °C 1017.5 hPa WSW 6.4 km/h 11.3 km/h 90 % 0.0 mm 0 W/m2
22:10 10.4 °C 9.0 °C 1017.8 hPa SSW 3.2 km/h 11.3 km/h 91 % 0.0 mm 0 W/m2
22:15 10.3 °C 9.1 °C 1017.8 hPa SW 6.4 km/h 11.3 km/h 92 % 0.0 mm 0 W/m2
22:20 10.3 °C 9.0 °C 1017.5 hPa West 6.4 km/h 11.3 km/h 92 % 0.0 mm 0 W/m2
22:25 10.3 °C 9.0 °C 1017.5 hPa West 9.7 km/h 11.3 km/h 92 % 0.0 mm 0 W/m2
22:30 10.3 °C 9.0 °C 1017.5 hPa WSW 3.2 km/h 11.3 km/h 92 % 0.0 mm 0 W/m2
22:35 10.3 °C 9.0 °C 1017.5 hPa SW 3.2 km/h 9.7 km/h 92 % 0.0 mm 0 W/m2
22:40 10.3 °C 8.9 °C 1017.5 hPa WNW 3.2 km/h 9.7 km/h 91 % 0.0 mm 0 W/m2
22:45 10.4 °C 9.0 °C 1017.5 hPa West 4.8 km/h 12.9 km/h 91 % 0.0 mm 0 W/m2
22:50 10.4 °C 9.0 °C 1017.5 hPa WSW 3.2 km/h 12.9 km/h 91 % 0.0 mm 0 W/m2
22:55 10.5 °C 9.1 °C 1017.5 hPa West 6.4 km/h 12.9 km/h 91 % 0.0 mm 0 W/m2
23:00 10.6 °C 9.1 °C 1017.5 hPa WNW 4.8 km/h 12.9 km/h 91 % 0.0 mm 0 W/m2
23:05 10.5 °C 9.1 °C 1017.5 hPa WSW 6.4 km/h 9.7 km/h 91 % 0.0 mm 0 W/m2
23:10 10.6 °C 9.1 °C 1017.5 hPa WSW 6.4 km/h 11.3 km/h 91 % 0.0 mm 0 W/m2
23:15 10.6 °C 9.1 °C 1017.5 hPa West 9.7 km/h 14.5 km/h 91 % 0.0 mm 0 W/m2
23:20 10.5 °C 9.1 °C 1017.5 hPa West 6.4 km/h 14.5 km/h 91 % 0.0 mm 0 W/m2
23:25 10.5 °C 9.1 °C 1017.5 hPa West 9.7 km/h 12.9 km/h 91 % 0.0 mm 0 W/m2
23:30 10.5 °C 8.9 °C 1017.5 hPa West 3.2 km/h 11.3 km/h 90 % 0.0 mm 0 W/m2
23:35 10.5 °C 8.9 °C 1017.2 hPa West 4.8 km/h 12.9 km/h 90 % 0.0 mm 0 W/m2
23:40 10.6 °C 8.9 °C 1017.5 hPa WNW 4.8 km/h 12.9 km/h 89 % 0.0 mm 0 W/m2
23:45 10.7 °C 8.9 °C 1017.5 hPa West 6.4 km/h 12.9 km/h 89 % 0.0 mm 0 W/m2
23:50 10.7 °C 9.1 °C 1017.2 hPa WSW 4.8 km/h 12.9 km/h 90 % 0.0 mm 0 W/m2
23:55 10.7 °C 9.1 °C 1017.2 hPa WNW 11.3 km/h 12.9 km/h 90 % 0.0 mm 0 W/m2
Avec l'autorisation de Weather Underground - 1.5 mb